Location: Dominguez Junction
(33.8634°N, 118.2179°W)
Time: 09:40:02
(UTC+00:00)

Cosmos 1892 Rocket - Pass Details

Date: 29 October 2020
Orbit: 607 x 632 km, 82.5° (Epoch: 27 November)

Event Time Altitude Azimuth Distance (km) Brightness Sun altitude
Rises 12:14:43 0° 177° (S) 2,850 7.0 -24.5°
Reaches altitude 10° 12:16:56 10° 173° (S) 1,953 6.2 -24.0°
Maximum altitude 12:21:11 60° 94° (E) 704 4.0 -23.1°
Drops below altitude 10° 12:25:29 10° 15° (NNE) 1,978 6.3 -22.2°
Sets 12:27:44 0° 11° (NNE) 2,891 7.1 -21.8°
